Tracking 18980 objects as of 19-Feb-2018
HD Live streaming from Space Station
objects crossing your sky now

FENGYUN 1C DEB

Track FENGYUN 1C DEB now!
10-day predictions


NORAD ID: 30930
Int'l Code: 1999-025AZU
Perigee: 708.5 km
Apogee: 876.8 km
Inclination: 98.6 °
Period: 100.6 minutes
Semi major axis: 7163 km
RCS: 0.0025 m2 (small)
Launch date: May 10, 1999
Source: People's Republic of China (PRC)
Launch site: Taiyaun Space Center, China (TSC)

Note: This is SATELLITE DEBRIS
aabbcc
Your satellite tracking list
Your tracking list is empty




NASA's NSSDC Master Catalog

Two Line Element Set (TLE):
1 30930U 99025AZU 18049.46573125 +.00000166 +00000-0 +73471-4 0  9994
2 30930 098.5513 126.7741 0117439 308.7706 106.6885 14.31863659574446
Source of the keplerian elements: AFSPC